sat.trackr.live / text

‹ back to catalog

STARLINK-37338

NORAD 68739 · 2026-082M

PAYLOAD ACTIVE UNKNOWN

§ Identity

Operator
Country
US
Launch date
2026-04-15
Launch site
AFWTR
Launch vehicle
Mass (kg)
RCS (m²)

Purposes: comms

External: N2YO · Heavens-Above · Gunter

§ Orbital elements

Epoch: 2026-09-20T00:54:18.962208Z

Period
93.91 min
Inclination
97.2844°
Eccentricity
0.0002650
Mean motion
15.33457532 rev/d
Perigee alt
463.7 km
Apogee alt
467.3 km
Semi-major
6,843.6 km
B*
4.3614e-4
RAAN
125.1785°
Arg perigee
89.2292°
Mean anomaly
270.9255°
Rev number
2,423

§ Raw data

STARLINK-373381 68739U 26082M   26263.03771947  .00014038  00000+0  43614-3 0  99942 68739  97.2844 125.1785 0002650  89.2292 270.9255 15.33457532 24232

JSON: /api/v1/satellites/68739 · /tle

For live sub-satellite position, see the globe view (requires WebGL).

§ Visibility from observer

Set your observer location to see the next 7 days of passes ≥ 10°. The values pass through the URL so the page stays shareable.

No JS? Fill the form by hand. The geolocation button needs JavaScript.